Terug naar catalogus

CENTISPACE-1 S15

ActiefNavigatieLEO
NORAD 62584·PAYLOAD·🇨🇳 China

Gelanceerd Jan 13, 2025 vanaf Yellow Sea Launch Area

Loading…

Volgende Passages (komende 24 uur)

TLE

VersSource: Space-Track

Epoch: Sep 14, 2026, 14:39 UTC

1 62584U 25007K   26257.61074370 -.00000046  00000-0  90016-4 0  9990
2 62584  54.9885 339.8991 0011632 246.6637 113.3096 13.80583723 87081

Volg CENTISPACE-1 S15 in realtime met AllMySat

Download on the App Store